This is the latest recevied weather packets stored in our database for station/object DO1SC. If no packets are shown the sender has not sent any weather packets the latest 10 day(s).
| Time | Temp. | Humidity | Pressure | Rain* | Wind** | Luminosity | Snow |
|---|---|---|---|---|---|---|---|
| 1777234527 | 5.56° C | 63% | 1024.8 hPa | - | - | 0 W/m² | - |
| 1777233919 | 5.56° C | 63% | 1024.8 hPa | - | - | 0 W/m² | - |
| 1777233333 | 5.56° C | 64% | 1024.8 hPa | - | - | 0 W/m² | - |
| 1777232722 | 5.56° C | 64% | 1024.9 hPa | - | - | 0 W/m² | - |
| 1777232134 | 5.56° C | 64% | 1024.9 hPa | - | - | 0 W/m² | - |
| 1777231526 | 6.11° C | 62% | 1024.7 hPa | - | - | 0 W/m² | - |
| 1777230918 | 6.67° C | 60% | 1024.6 hPa | - | - | 0 W/m² | - |
| 1777230329 | 6.67° C | 61% | 1024.6 hPa | - | - | 0 W/m² | - |
| 1777229721 | 7.22° C | 58% | 1024.4 hPa | - | - | 0 W/m² | - |
| 1777229132 | 7.22° C | 56% | 1024.3 hPa | - | - | 0 W/m² | - |
| 1777228524 | 7.78° C | 56% | 1024.2 hPa | - | - | 1 W/m² | - |
| 1777227935 | 7.78° C | 55% | 1024.2 hPa | - | - | 3 W/m² | - |
| 1777227326 | 8.33° C | 53% | 1024.1 hPa | - | - | 6 W/m² | - |
| 1777226718 | 8.33° C | 53% | 1024.1 hPa | - | - | 12 W/m² | - |
| 1777226130 | 8.89° C | 52% | 1024 hPa | - | - | 22 W/m² | - |
| 1777225522 | 8.89° C | 51% | 1023.9 hPa | - | - | 28 W/m² | - |
| 1777224933 | 8.89° C | 50% | 1023.9 hPa | - | - | 27 W/m² | - |
| 1777224325 | 9.44° C | 50% | 1024 hPa | - | - | 26 W/m² | - |
| 1777223736 | 9.44° C | 49% | 1024 hPa | - | - | 27 W/m² | - |
| 1777223128 | 10° C | 46% | 1023.9 hPa | - | - | 32 W/m² | - |
| 1777222519 | 10.56° C | 43% | 1023.9 hPa | - | - | 36 W/m² | - |
| 1777221931 | 10.56° C | 41% | 1023.9 hPa | - | - | 40 W/m² | - |
| 1777221323 | 11.11° C | 38% | 1024 hPa | - | - | 47 W/m² | - |
| 1777220734 | 11.11° C | 37% | 1024.1 hPa | - | - | 56 W/m² | - |
| 1777220125 | 11.67° C | 38% | 1024.1 hPa | - | - | 78 W/m² | - |
* Rain since midnight (hover to see other rain measurements)
** Current wind speed in m/s (hover to see current wind gust speed)